Regional Weather Roundup
Issued by NWS

Home | Current Version | Previous Version | Graphics & Text | Print | Product List | Glossary On
Versions: 1 2 3 4 5 6 7 8 9 10 11 12 13 14 15 16 17 18 19 20 21 22 23 24 25 26 27 28 29 30 31 32 33 34 35 36 37 38 39 40 41 42 43 44 45 46 47 48 49 50
000
ASUS43 KFSD 022110
RWRSD

WEATHER ROUNDUP FOR SOUTH DAKOTA
NATIONAL WEATHER SERVICE SIOUX FALLS SD
400 PM CDT TUE SEP 02 2014

NOTE: "FAIR" INDICATES FEW OR NO CLOUDS BELOW 12,000 FEET WITH NO
SIGNIFICANT WEATHER AND/OR OBSTRUCTIONS TO VISIBILITY.


SDZ001>005-009-010-012>017-022200-
NORTHWEST AND NORTH CENTRAL SOUTH DAKOTA

CITY           SKY/WX    TMP DP  RH WIND       PRES   REMARKS
BUFFALO          N/A     77  45  32 NW15G21   29.79F
FAITH            N/A     81  46  29 W13G25    29.83F
MOBRIDGE       SUNNY     83  48  29 W10       29.78F
$$

SDZ012>016-024>037-041>051-057-063-072>074-022200-
SOUTHWEST AND SOUTH CENTRAL SOUTH DAKOTA

CITY           SKY/WX    TMP DP  RH WIND       PRES   REMARKS
RAPID CTY ARPT SUNNY     80  47  31 SE6       29.87F
PIERRE         SUNNY     83  48  29 SW12      29.82F
CUSTER         SUNNY     74  32  21 W8        30.00F
ELLSWORTH AFB  SUNNY     80  48  32 S9        29.86F
PHILIP         SUNNY     84  47  27 SW12      29.83F
PINE RIDGE     SUNNY     81  45  28 W9        29.89F
WINNER         FAIR      83  46  27 SW10      29.88F
$$

SDZ004>011-016>023-039-040-022200-
NORTHEAST SOUTH DAKOTA

CITY           SKY/WX    TMP DP  RH WIND       PRES   REMARKS
ABERDEEN       SUNNY     79  52  38 SW12      29.82F
WATERTOWN      SUNNY     76  55  48 SW17      29.88F
SISSETON         N/A     78  55  44 SW15      29.81F
$$

SDZ017-020-022-023-036>040-048>070-022200-
SOUTHEAST SOUTH DAKOTA

CITY           SKY/WX    TMP DP  RH WIND       PRES   REMARKS
SIOUX FALLS    MOSUNNY   76  55  48 SW9       29.93F
HURON          SUNNY     79  50  36 S10       29.86F
CHAMBERLAIN    SUNNY     80  51  36 SW7       29.87F
MITCHELL       SUNNY     78  55  44 S10       29.90F
YANKTON        SUNNY     79  55  44 SW10      29.93F
$$

ABBREVIATIONS USED IN REMARKS
   TC - TEMPERATURE IN CELSIUS
  WCI - WIND CHILL INDEX
   HX - HEAT INDEX
  VSB - VISIBILITY



USA.gov is the U.S. government's official web portal to all federal, state and local government web resources and services.